Flag for United Kingdom Weather past 2 weeks in King's Lynn, England, United Kingdom

Now
73 °F

Sunny.


Feels Like: 77 °F
Forecast: 57 / 69 °F
Wind: 20 mph from Southwest

Location: Marham

Current Time: Aug 3, 2015 at 7:07:37 PM

Latest Report: Aug 3, 2015 at 5:50 PM


Visibility: 10 mi

Pressure: 29.77 "Hg

Humidity: 57%

Dew point: 57 °F

Location of King's LynnLocation

Historic Weather in King's Lynn — Graph

°F

King's Lynn temperature yesterday

Maximum temperature yesterday: 75 °F (at 3:50 PM)
Minimum temperature yesterday: 50 °F (at 5:50 AM)
Average temperature yesterday: 64 °F

Past Weeks' High & Low Weather Summary

 TemperatureHumidityPressure
High75 °F (Jul 21, 2:50 PM)100% (Jul 23, 2:50 AM)30.12 "Hg (Jul 23, 2:50 AM)
Low43 °F (Jul 31, 4:50 AM)40% (Jul 19, 5:50 PM)29.33 "Hg (Jul 27, 2:50 AM)
Average60 °F76%29.84 "Hg
* Reported Jul 19 5:50 PM — Aug 3 5:50 PM, King's Lynn, Weather by CustomWeather, © 2015

Note: Actual official high and low records may vary slightly from our data, if they occured in-between our weather recording intervals... More about our weather records

Advertising

King's Lynn weather history for previous 24 hours

 ConditionsComfort  
Time TempWeatherWind HumidityBarometerVisibility
5:50 PM
Mon, Aug 3
73 °FSunny.20 mph57%29.77 "Hg10 mi
4:50 PM73 °FSunny.17 mph57%29.80 "Hg10 mi
3:50 PM75 °FPartly sunny.21 mph54%29.80 "HgN/A
2:50 PM75 °FSunny.23 mph50%29.80 "Hg10 mi
1:50 PM75 °FPartly sunny.21 mph54%29.80 "HgN/A
12:50 PM75 °FPartly sunny.18 mph54%29.80 "HgN/A
11:50 AM73 °FPartly sunny.16 mph61%29.83 "HgN/A
10:50 AM72 °FPartly sunny.20 mph65%29.83 "HgN/A
9:50 AM70 °FPartly sunny.16 mph69%29.80 "HgN/A
8:50 AM68 °FSunny.14 mph69%29.80 "Hg10 mi
7:50 AM66 °FSunny.14 mph73%29.80 "Hg10 mi
6:50 AM64 °FSunny.10 mph73%29.77 "Hg10 mi
5:50 AM63 °FClear.9 mph77%29.77 "Hg10 mi
4:50 AM66 °FClear.16 mph68%29.77 "Hg10 mi
3:50 AM64 °FOvercast.15 mph73%29.80 "HgN/A
2:50 AM63 °FPassing clouds.14 mph73%29.83 "HgN/A
1:50 AM63 °FOvercast.13 mph68%29.86 "HgN/A
12:50 AM63 °FClear.16 mph64%29.89 "Hg10 mi
11:50 PM
Sun, Aug 2
63 °FClear.10 mph64%29.92 "Hg10 mi
10:50 PM63 °FClear.12 mph64%29.95 "Hg10 mi
9:50 PM64 °FClear.12 mph60%29.95 "Hg10 mi
8:50 PM66 °FSunny.9 mph60%29.95 "Hg10 mi
7:50 PM70 °FSunny.14 mph57%29.95 "Hg10 mi
Weather by CustomWeather, © 2015

See weather overviewHow to use our weather pages